GW3700 Weather Reports


time (UTC)temp
C
wind
direction
speed
KPH
gust
KPH
rain 1hr
cm
rain 24hr
cm
rain mn
cm
humidity
%
barometer
mb
20260509161518 12 304 6.4 12.9 0.00 0.00 0.00 92 1028.2
20260509160015 12 254 6.4 11.3 0.00 0.00 0.00 92 1028.2
20260509154511 12 285 3.2 14.5 0.00 0.00 0.00 92 1028.2
20260509153018 12 285 9.7 14.5 0.00 0.00 0.00 92 1028.1
20260509151507 12 317 3.2 8.0 0.00 0.00 0.00 92 1028.0
20260509150005 12 288 8.0 12.9 0.00 0.00 0.00 92 1028.0
20260509144504 12 281 3.2 14.5 0.00 0.00 0.00 91 1028.0
20260509143004 12 285 6.4 16.1 0.00 0.00 0.00 91 1027.9
20260509141502 12 290 8.0 12.9 0.00 0.00 0.00 91 1028.0
20260509140117 12 309 8.0 14.5 0.00 0.00 0.00 91 1028.0
20260509134559 12 314 4.8 11.3 0.00 0.00 0.00 91 1027.9
20260509133104 12 307 4.8 9.7 0.00 0.00 0.00 91 1027.8
20260509131556 12 271 6.4 11.3 0.00 0.00 0.00 91 1027.8
20260509130058 12 305 3.2 9.7 0.00 0.00 0.00 91 1027.8
20260509124605 12 292 4.8 11.3 0.00 0.00 0.00 91 1027.8
20260509123055 12 300 3.2 9.7 0.00 0.00 0.00 91 1027.8
20260509121554 12 279 3.2 8.0 0.00 0.00 0.00 90 1027.8
20260509120051 12 282 3.2 8.0 0.00 0.00 0.00 90 1027.7
20260509114556 12 274 3.2 6.4 0.00 0.00 0.00 90 1027.6
20260509113050 12 284 3.2 8.0 0.00 0.00 0.00 90 1027.5
20260509111547 12 304 3.2 8.0 0.00 0.00 0.00 90 1027.3
20260509110048 12 340 4.8 11.3 0.00 0.00 0.00 90 1027.2
20260509104545 13 278 6.4 11.3 0.00 0.00 0.00 89 1027.1
20260509103045 13 305 4.8 9.7 0.00 0.00 0.00 89 1026.9
20260509101545 13 281 3.2 8.0 0.00 0.00 0.00 89 1026.7
20260509100053 13 278 6.4 11.3 0.00 0.00 0.00 89 1026.7
20260509094545 13 292 4.8 8.0 0.00 0.00 0.00 89 1026.7
20260509093045 13 293 4.8 8.0 0.00 0.00 0.00 91 1026.6
20260509091542 13 308 3.2 6.4 0.00 0.00 0.00 92 1026.7
20260509090042 14 278 1.6 4.8 0.00 0.00 0.00 92 1026.4
20260509084547 14 276 1.6 4.8 0.00 0.00 0.00 91 1026.4
20260509083040 14 276 0.0 4.8 0.00 0.00 0.00 91 1026.2
20260509081540 15 266 1.6 6.4 0.00 0.00 0.00 91 1026.0
20260509080058 15 268 1.6 6.4 0.00 0.00 0.00 91 1025.9
20260509074539 15 252 0.0 8.0 0.00 0.00 0.00 90 1025.8
20260509073121 15 238 4.8 9.7 0.00 0.00 0.00 89 1025.7
20260509071537 15 227 1.6 4.8 0.00 0.00 0.00 86 1025.5
20260509070036 16 255 0.0 3.2 0.00 0.00 0.00 82 1025.3
20260509064537 17 245 0.0 6.4 0.00 0.00 0.00 81 1025.3
20260509063036 17 226 1.6 8.0 0.00 0.00 0.00 80 1025.2
20260509061637 17 264 3.2 9.7 0.00 0.00 0.00 79 1025.2
20260509060033 17 247 1.6 9.7 0.00 0.00 0.00 79 1025.1
20260509054537 17 233 4.8 14.5 0.00 0.00 0.00 79 1025.1
20260509053032 16 262 3.2 11.3 0.00 0.00 0.00 80 1025.1
20260509051528 16 233 4.8 14.5 0.00 0.00 0.00 80 1025.2
20260509050035 16 215 6.4 14.5 0.00 0.00 0.00 81 1025.4
20260509044525 16 216 6.4 16.1 0.00 0.00 0.00 81 1025.4
20260509043038 16 198 9.7 19.3 0.00 0.00 0.00 81 1025.5
20260509041524 16 232 9.7 20.9 0.00 0.00 0.00 81 1025.4
20260509040022 16 184 9.7 19.3 0.00 0.00 0.00 79 1025.5
20260509034519 16 227 6.4 14.5 0.00 0.00 0.00 78 1025.6
20260509033021 16 243 3.2 14.5 0.00 0.00 0.00 77 1025.6
20260509031519 16 239 4.8 20.9 0.00 0.00 0.00 75 1025.6
20260509030011 16 248 4.8 14.5 0.00 0.00 0.00 77 1025.9
20260509024511 16 203 3.2 16.1 0.00 0.00 0.00 75 1026.1
20260509023014 16 246 6.4 16.1 0.00 0.00 0.00 76 1026.4
20260509021515 15 261 6.4 16.1 0.00 0.00 0.00 77 1026.7
20260509020001 15 225 8.0 19.3 0.00 0.00 0.00 78 1026.8
20260509014600 15 318 4.8 19.3 0.00 0.00 0.00 78 1027.0
20260509013106 14 270 8.0 25.7 0.00 0.00 0.00 79 1027.1
20260509011558 15 248 4.8 20.9 0.00 0.00 0.00 80 1027.1
20260509010058 15 295 9.7 27.4 0.00 0.00 0.00 79 1027.1
20260509004612 15 313 6.4 19.3 0.00 0.00 0.00 80 1027.1
20260509003053 14 297 11.3 24.1 0.00 0.00 0.00 81 1027.1
20260509001551 13 319 11.3 22.5 0.00 0.00 0.00 81 1027.1
20260509000049 13 281 9.7 24.1 0.00 0.00 0.00 81 1027.1
20260508234549 13 288 9.7 20.9 0.00 0.00 0.00 81 1027.1
20260508233058 13 281 9.7 29.0 0.00 0.00 0.00 80 1027.1
20260508231546 13 302 8.0 30.6 0.00 0.00 0.00 81 1027.3
20260508230054 13 289 4.8 25.7 0.00 0.00 0.00 82 1027.2
20260508224542 13 268 8.0 20.9 0.00 0.00 0.00 82 1027.1
20260508223040 13 265 14.5 22.5 0.00 0.00 0.00 82 1027.0
20260508221540 12 277 8.0 17.7 0.00 0.00 0.00 83 1026.8
20260508220034 12 282 6.4 16.1 0.00 0.00 0.00 83 1026.8
20260508214532 12 254 9.7 17.7 0.00 0.00 0.00 84 1026.4
20260508213030 -17 0.0 0.0 0.00 0.00 0.00 1026.3
20260508211527 -17 0.0 0.0 0.00 0.00 0.00 1026.2
20260508210133 -17 0.0 0.0 0.00 0.00 0.00 1026.0
20260508204515 -17 0.0 0.0 0.00 0.00 0.00 1025.7
20260508203011 -17 0.0 0.0 0.00 0.00 0.00 1025.6
20260508201506 -17 0.0 0.0 0.00 0.00 0.00 1025.5
20260508200002 -17 0.0 0.0 0.00 0.00 0.00 1025.3
20260508194557 -17 0.0 0.0 0.00 0.00 0.00 1025.2
20260508193059 -17 0.0 0.0 0.00 0.00 0.00 1025.1
20260508191551 -17 0.0 0.0 0.00 0.00 0.00 1024.9
20260508190053 -17 0.0 0.0 0.00 0.00 0.00 1024.8
20260508184556 -17 0.0 0.0 0.00 0.00 0.00 1024.7
20260508183036 -17 260 4.8 12.9 0.00 0.00 0.00 97 1024.7
20260508181548 11 253 3.2 14.5 0.00 0.00 0.00 97 1024.6
20260508180033 11 271 1.6 11.3 0.00 0.00 0.00 97 1024.5
20260508174530 11 281 1.6 14.5 0.00 0.00 0.00 98 1024.4
20260508173030 11 281 4.8 17.7 0.00 0.00 0.00 98 1024.3
20260508171530 10 324 3.2 11.3 0.00 0.00 0.00 98 1024.3
20260508170035 10 238 3.2 11.3 0.00 0.00 0.00 98 1024.3
20260508164530 10 255 1.6 8.0 0.00 0.00 0.00 98 1024.2
20260508163026 11 210 1.6 8.0 0.00 0.00 0.00 98 1024.2